Tracking 20232 objects as of 20-Jan-2020
HD Live streaming from Space Station
objects crossing your sky now

DELTA 2 R/B(1)

Track DELTA 2 R/B(1) now!
10-day predictions


NORAD ID: 22015
Int'l Code: 1992-039B
Perigee: 484.3 km
Apogee: 549.6 km
Inclination: 20.7 °
Period: 94.8 minutes
Semi major axis: 6887 km
RCS: 9.3859 m2 (large)
Launch date: July 7, 1992
Source: United States (US)
Launch site: AIR FORCE EASTERN TEST RANGE (AFETR)

Note: This is a ROCKET BODY
aabbcc
Your satellite tracking list
Your tracking list is empty




NASA's NSSDC Master Catalog

Two Line Element Set (TLE):
1 22015U 92039B   20020.36046239  .00001369  00000-0  37263-4 0  9994
2 22015  20.7162  39.4508 0047439 262.0336  97.4718 15.18683668534794
Source of the keplerian elements: AFSPC